Dewpoint
33 33 33 33 32 31 32 32 33 33 33 32 33 34 33 31 32 32 34 39 41 43 46 50 54 57 62 66 68 68 67 67 66 65 64 63 62 59 63 61 62 62 62
33 33 33 31 30 31 32 32 33 33 33 33 32 31 32 32 32 33 34 35 40 42 44 46 50 54 58 65 64 68 67 66 66 65 64 63 62 59 62 61 62 61 62
34 32 32 30 30 32 32 33 32 31 31 32 31 31 31 31 32 32 33 34 36 40 43 44 46 49 55 57 65 67 67 66 65 65 64 63 62 60 61 61 61 61 62
34 31 31 31 31 32 32 31 31 32 31 30 30 31 31 31 32 32 34 33 34 36 39 43 44 46 52 53 62 67 67 66 65 64 64 63 62 60 61 61 61 62 62
34 31 30 31 31 32 31 31 30 29 31 32 32 32 32 31 33 34 34 35 35 36 38 41 44 44 49 52 62 67 68 66 65 65 64 63 62 59 61 61 61 62 62
32 30 30 31 31 30 29 29 31 31 33 32 33 32 30 32 33 34 33 36 37 38 39 40 43 47 47 52 60 61 68 67 66 65 64 63 62 58 59 61 61 62 62
32 29 29 30 31 29 31 30 31 34 32 33 34 29 30 31 37 31 34 41 41 43 41 42 45 49 51 53 59 62 67 67 66 65 64 63 61 58 58 60 61 62 61
32 28 29 30 29 29 30 32 32 32 33 32 33 31 25 27 31 32 38 38 39 41 43 44 45 49 52 57 61 60 67 67 66 65 63 62 61 58 59 60 61 61 61
31 30 29 30 28 30 31 31 33 34 31 31 34 33 27 25 29 33 32 36 36 40 41 46 48 50 53 59 60 59 62 63 64 64 63 62 61 61 59 60 61 61 61
30 29 29 30 30 30 30 31 32 33 33 29 31 35 34 33 29 27 31 32 36 38 41 46 49 50 53 60 60 58 58 59 61 63 63 62 61 61 59 60 61 61 61
29 28 29 30 29 30 30 30 31 32 34 32 31 31 32 32 33 31 26 31 35 40 44 46 51 52 53 59 59 58 56 58 59 61 62 62 62 61 61 60 60 61 61
27 27 28 29 30 29 29 31 32 31 32 32 32 32 31 29 29 29 29 30 33 38 44 48 51 53 57 59 59 56 55 56 58 59 60 60 61 61 61 60 59 61 61
26 27 28 28 29 29 30 31 32 31 32 31 31 31 31 31 32 31 31 31 33 38 44 51 53 55 59 59 58 57 54 54 57 58 58 59 59 59 59 59 60 59 61
27 26 28 28 28 29 30 31 31 31 30 30 30 31 31 31 32 32 32 32 31 37 43 44 51 58 58 58 56 54 56 53 55 56 56 57 58 57 58 58 58 59 59
27 26 26 27 29 29 30 31 32 29 29 30 30 30 30 32 33 33 34 34 32 34 39 43 47 54 56 57 55 58 58 55 54 54 54 55 56 56 56 56 57 57 58
28 25 24 25 27 29 30 29 29 28 28 29 30 30 30 32 33 33 34 34 35 35 39 42 45 51 54 55 55 58 60 56 53 52 52 53 54 55 55 55 55 55 56
28 24 25 25 25 27 30 28 28 28 28 28 29 30 31 32 32 33 34 34 36 37 38 42 44 49 52 53 54 57 57 59 56 51 51 51 51 52 52 53 53 53 54
26 24 25 25 26 28 30 27 27 28 28 28 28 29 31 32 32 33 33 34 35 37 38 40 41 45 47 50 52 56 58 59 59 52 51 50 50 50 50 50 51 51 52
25 23 24 25 26 28 27 26 26 28 29 29 29 29 31 31 31 32 33 33 34 36 39 40 40 43 44 44 48 55 57 58 59 52 50 49 49 50 49 49 50 50 50
24 23 24 25 27 27 26 25 25 27 28 29 29 30 31 31 31 32 32 32 34 35 36 37 38 39 41 41 43 55 54 58 56 56 54 53 51 49 49 48 49 49 49
24 23 23 25 26 26 25 26 25 25 27 28 29 29 31 33 35 34 32 32 32 33 34 34 35 37 36 38 38 44 55 56 55 57 56 55 54 54 51 48 50 49 48
23 22 22 23 25 26 28 28 26 25 26 27 27 29 30 32 32 34 34 34 33 32 32 32 32 34 34 35 36 46 53 52 50 48 56 54 56 55 54 55 49 47 47
23 22 22 22 23 26 28 27 26 24 25 26 28 28 28 30 31 31 33 32 33 34 32 34 32 32 33 35 37 47 52 50 42 42 54 53 57 56 56 55 46 46 45
22 20 21 22 22 24 29 27 26 24 24 25 27 28 28 29 30 30 30 30 31 32 33 34 34 34 34 36 40 43 41 40 41 40 42 50 50 55 57 57 46 46 45
20 20 20 20 22 23 29 27 25 23 23 23 24 26 28 29 31 31 28 29 29 30 32 34 35 35 35 35 36 41 40 45 38 36 38 44 39 43 42 42 46 45 44
21 19 18 20 22 23 28 27 24 23 22 22 23 24 27 28 30 30 28 27 26 28 30 30 32 33 34 35 34 35 36 36 36 36 36 38 36 40 38 38 40 42 44
Lifted_Index
22 23 23 23 22 22 22 21 21 21 21 21 20 20 19 19 20 20 20 20 19 17 15 11 4 -0 -1 -1 -1 -2 -2 -2 -1 -0 0 1 2 2 2 2 2 2 2
23 23 23 22 22 22 22 21 21 21 20 18 17 16 16 16 17 19 20 20 19 18 16 12 5 1 -0 -0 -1 -1 -2 -2 -1 -0 0 1 2 2 2 2 2 2 2
23 23 22 21 21 21 21 21 20 18 16 15 13 13 12 13 14 16 18 19 19 18 17 14 8 3 1 0 0 -0 -2 -2 -1 -1 0 1 2 2 2 2 2 2 2
23 22 21 21 21 21 20 19 17 15 13 12 11 11 10 10 11 14 16 18 18 18 17 16 11 5 2 1 1 -1 -2 -2 -1 -1 0 1 2 2 2 2 2 2 2
22 21 20 20 20 20 18 16 14 13 12 11 10 10 9 9 9 12 14 16 17 17 17 17 14 8 3 2 1 -0 -2 -2 -1 -1 0 1 2 2 2 2 2 2 2
21 20 20 20 20 18 16 14 13 12 11 11 10 9 8 8 8 10 13 15 15 15 16 16 15 10 5 3 3 1 -1 -2 -2 -1 0 1 2 3 3 2 2 2 2
20 20 20 20 18 16 14 13 12 12 11 11 10 8 7 7 7 9 12 14 14 14 15 15 15 11 6 4 3 2 -1 -3 -2 -1 0 1 2 3 3 2 2 2 2
20 20 20 19 17 15 13 13 12 12 11 11 10 8 7 6 7 9 12 13 13 14 14 14 14 11 6 3 3 2 -1 -3 -2 -1 0 1 2 3 3 2 2 2 2
20 20 19 18 16 14 13 13 13 12 12 11 10 9 7 7 8 9 11 12 13 14 14 13 12 10 5 3 3 2 -1 -2 -2 -1 1 1 2 2 3 2 2 2 2
20 20 19 17 15 14 13 13 13 13 12 11 11 10 8 8 9 10 11 12 12 13 13 12 11 8 5 3 3 2 0 -2 -1 -0 1 1 2 2 2 2 2 2 2
20 20 18 16 14 14 13 13 13 13 13 12 11 10 9 8 9 11 12 11 12 12 12 11 9 7 4 3 3 3 2 -1 -1 -0 1 1 2 2 2 2 2 2 2
20 19 18 16 15 14 14 14 14 13 13 12 11 10 9 9 10 12 13 11 11 10 10 9 8 5 3 2 3 4 2 -0 -1 -0 1 1 2 2 2 2 2 2 2
20 20 18 16 15 15 14 14 14 14 13 12 11 10 10 10 11 13 13 11 10 9 8 7 5 3 2 2 3 4 3 0 -1 -0 1 2 2 2 2 2 2 2 2
21 20 18 16 15 15 15 15 14 14 13 12 11 11 11 11 12 14 14 11 9 8 7 5 3 2 1 2 3 4 3 1 -1 -0 1 2 2 2 2 3 3 3 3
21 20 17 15 15 15 15 15 15 14 13 12 12 11 11 11 12 14 14 11 8 7 6 4 3 2 2 3 4 4 3 1 -1 -0 1 2 2 3 3 3 3 3 3
21 20 17 15 15 15 15 15 14 14 13 12 12 12 11 11 11 13 13 10 7 6 5 4 2 2 3 4 4 4 3 1 -1 -0 1 2 2 3 3 3 3 3 4
20 19 17 15 15 14 14 14 14 13 13 12 12 12 11 11 11 11 11 9 6 5 4 3 2 2 3 4 4 4 2 0 -0 -0 1 2 2 3 3 3 3 4 4
20 19 17 15 15 15 14 14 13 13 13 12 12 12 11 10 10 10 9 7 6 5 4 3 2 3 4 4 5 4 2 1 -0 -0 0 1 2 3 3 3 4 4 4
19 19 18 16 15 15 15 14 13 13 13 13 13 12 11 10 10 9 8 6 5 5 4 3 2 3 4 5 5 4 2 1 0 0 0 1 2 2 3 3 3 3 3
19 19 18 17 16 15 15 14 13 13 12 13 13 12 12 11 11 10 8 6 5 4 4 3 3 3 5 5 5 4 3 2 1 0 0 1 1 2 2 3 3 3 3
19 19 18 17 16 16 16 15 14 13 12 12 12 13 13 13 13 12 10 7 5 4 3 3 3 4 4 4 5 4 3 2 1 1 0 0 1 2 2 2 2 3 2
18 18 18 17 16 16 16 16 14 13 12 12 12 13 13 14 14 13 12 9 6 4 3 3 3 4 4 4 4 3 3 2 2 1 1 1 1 2 2 2 2 2 2
18 18 17 17 16 17 17 16 15 14 13 13 13 13 14 14 14 13 12 10 7 5 4 4 4 4 4 4 3 3 3 2 2 1 1 1 1 1 2 2 2 2 2
17 17 17 17 17 17 17 17 16 15 13 13 13 14 14 15 14 13 11 9 8 7 7 7 6 6 6 5 4 3 2 2 2 1 1 1 1 1 1 2 2 2 2
17 17 17 17 17 17 17 18 17 16 14 14 14 15 15 15 14 13 11 10 9 9 10 10 9 9 8 6 4 3 3 2 2 1 1 2 2 2 2 2 2 2 2
18 18 17 17 17 17 17 18 17 16 15 14 15 15 16 15 15 13 11 10 10 10 11 10 10 9 8 7 5 4 3 2 2 1 2 2 2 3 3 3 3 3 2